Voltar ao catálogo

STARLINK-2221

AtivoComunicaçõesVLEO
NORAD 48571·PAYLOAD·🇺🇸 United States

Lançado May 15, 2021 de Cape Canaveral Space Force Station

Loading…

Próximas Passagens (próximas 24 horas)

TLE

AtualizadoSource: CelesTrak SupGP

Época: Sep 14, 2026, 20:50 UTC

1 48571C 21041U   26257.86854167 -.00032301  00000+0 -10387-2 0  2578
2 48571  53.1595 339.1615 0001291  78.1661 245.7545 15.31719419    19

Acompanhe STARLINK-2221 em tempo real com AllMySat

Download on the App Store